This is the latest recevied weather packets stored in our database for station/object KB9GXK. If no packets are shown the sender has not sent any weather packets the latest 10 day(s).
| Time | Temp. | Humidity | Pressure | Rain* | Wind** | Luminosity | Snow |
|---|---|---|---|---|---|---|---|
| 1788096612 | 68° F | 89% | 762.7 mmHg | 0 in | - | 79 W/m² | - |
| 1788096303 | 68° F | 89% | 762.8 mmHg | 0 in | - | 75 W/m² | - |
| 1788096003 | 68° F | 89% | 762.9 mmHg | 0 in | - | 77 W/m² | - |
| 1788095701 | 68° F | 89% | 763 mmHg | 0 in | - | 68 W/m² | - |
| 1788095396 | 68° F | 89% | 763 mmHg | 0 in | - | 48 W/m² | - |
| 1788095091 | 68° F | 89% | 763 mmHg | 0 in | - | 19 W/m² | - |
| 1788094790 | 68° F | 89% | 763 mmHg | 0 in | - | 8 W/m² | - |
| 1788094485 | 68° F | 89% | 763.1 mmHg | 0.07 in | - | 5 W/m² | - |
| 1788094184 | 68° F | 89% | 763.3 mmHg | 0.19 in | - | 4 W/m² | - |
| 1788093878 | 68° F | 88% | 763 mmHg | 0.35 in | - | 4 W/m² | - |
| 1788093570 | 68° F | 87% | 763.3 mmHg | 0.28 in | - | 2 W/m² | - |
| 1788093266 | 69° F | 85% | 763.6 mmHg | 0.19 in | - | 2 W/m² | - |
| 1788092963 | 69° F | 84% | 763.6 mmHg | 0.07 in | - | 4 W/m² | - |
| 1788092663 | 69° F | 83% | 763.3 mmHg | 0 in | - | 4 W/m² | - |
| 1788090836 | 70° F | 82% | 763.3 mmHg | 0 in | - | 1 W/m² | - |
| 1788090531 | 70° F | 82% | 763.4 mmHg | 0 in | - | 1 W/m² | - |
| 1788090228 | 70° F | 80% | 763.3 mmHg | 0.07 in | - | 1 W/m² | - |
| 1788089923 | 70° F | 80% | 763.3 mmHg | 0.07 in | - | 1 W/m² | - |
| 1788089622 | 70° F | 80% | 763.3 mmHg | 0 in | - | 0 W/m² | - |
| 1788089318 | 69° F | 82% | 762.8 mmHg | 0 in | - | 0 W/m² | - |
| 1788089014 | 68° F | 84% | 762.7 mmHg | 0 in | - | 0 W/m² | - |
| 1788088710 | 68° F | 86% | 763 mmHg | 0 in | - | 0 W/m² | - |
| 1788088421 | 68° F | 86% | 762.9 mmHg | 0 in | - | 0 W/m² | - |
| 1788088100 | 68° F | 86% | 763 mmHg | 0 in | - | 0 W/m² | - |
| 1788087797 | 68° F | 85% | 763 mmHg | 0 in | - | 0 W/m² | - |
* Rain latest hour (hover to see other rain measurements)
** Current wind speed in m/s (hover to see current wind gust speed)